Regional Weather Roundup
Issued by NWS

Home | Current Version | Previous Version | Text Only | Print | Product List | Glossary On
Versions: 1 2 3 4 5 6 7 8 9 10 11 12 13 14 15 16 17 18 19 20 21 22 23 24 25 26 27 28 29 30 31 32 33 34 35 36 37 38 39 40 41 42 43 44 45 46 47 48 49 50
037
ASUS44 KOUN 180210
RWROK

WEATHER ROUNDUP FOR OKLAHOMA
NATIONAL WEATHER SERVICE NORMAN OK
900 PM CDT TUE OCT 17 2017

NOTE: "FAIR" INDICATES FEW OR NO CLOUDS BELOW 12,000 FEET WITH NO
      SIGNIFICANT WEATHER AND/OR OBSTRUCTIONS TO VISIBILITY.

OKZ001>007-009>012-014-015-017-180300-
NORTHWEST OKLAHOMA AND THE PANHANDLE

CITY           SKY/WX    TMP DP  RH WIND       PRES   REMARKS
GAGE           CLEAR     64  39  39 S24G30    30.03S
GUYMON         CLEAR     57  41  55 SW7       30.02R
ENID/WOODRING  PTCLDY    55  46  71 CALM      30.08R
$$

OKZ016-021>023-033>039-044-045-180300-
SOUTHWEST OKLAHOMA

CITY           SKY/WX    TMP DP  RH WIND       PRES   REMARKS
LAWTON/REGL    CLEAR     59  47  64 MISG      30.11S
LAWTON/FT SILL CLEAR     60  48  64 S9        30.10S
FREDERICK      CLEAR     60  46  59 SE10      30.07S
CLINTON        CLEAR     59  42  53 S14       30.09S
HOBART         CLEAR     63  42  46 S13       30.09S
ALTUS AFB      CLEAR     58  42  55 SE9       30.08S
$$

OKZ018>020-024>031-180300-
CENTRAL OKLAHOMA

CITY           SKY/WX    TMP DP  RH WIND       PRES   REMARKS
OKLAHOMA CITY  PTCLDY    56  46  69 S7        30.11S
OKC/WILEY POST CLEAR     63  46  54 S15       30.11S
OKC/TINKER AFB CLEAR     62  47  58 S10G17    30.11S
STILLWATER     CLEAR     60  45  57 SE8       30.11S
GUTHRIE        CLEAR     62  46  55 S8        30.10S
$$

OKZ008-013-054>072-180300-
NORTHEAST OKLAHOMA

CITY           SKY/WX    TMP DP  RH WIND       PRES   REMARKS
TULSA          CLEAR     62  47  57 S8        30.13R
TULSA/JONES    CLEAR     54  49  83 CALM      30.14R
PONCA CITY     CLEAR     60  46  59 SE10      30.10R
BARTLESVILLE   CLEAR     49  45  86 CALM      30.14R
MUSKOGEE       CLEAR     57  47  69 S5        30.16S
$$

OKZ032-040>043-046>053-073>077-180300-
SOUTH CENTRAL/SOUTHEAST OKLAHOMA

CITY           SKY/WX    TMP DP  RH WIND       PRES   REMARKS
ARDMORE/DWNTWN CLEAR     55  41  58 CALM      30.14S
MCALESTER      CLEAR     58  45  62 S5        30.17R
$$





USA.gov is the U.S. government's official web portal to all federal, state and local government web resources and services.